QPF
0.00 0.00 0.00 0.00 0.00 0.00 0.00 0.00 0.00 0.00 0.00 0.00 0.00 0.00 0.00 0.00 0.00 0.00 0.00 0.01 0.01 0.03
0.00 0.00 0.00 0.00 0.00 0.00 0.00 0.00 0.00 0.00 0.00 0.00 0.00 0.00 0.00 0.00 0.00 0.00 0.00 0.00 0.01 0.02
0.00 0.00 0.00 0.00 0.00 0.00 0.00 0.00 0.00 0.00 0.00 0.00 0.00 0.00 0.00 0.00 0.00 0.00 0.00 0.00 0.01 0.02
0.00 0.00 0.00 0.00 0.00 0.00 0.00 0.00 0.00 0.00 0.00 0.00 0.00 0.00 0.00 0.00 0.00 0.00 0.00 0.00 0.01 0.02
0.00 0.00 0.00 0.00 0.00 0.00 0.00 0.00 0.00 0.00 0.00 0.00 0.00 0.00 0.00 0.00 0.00 0.00 0.00 0.00 0.00 0.01
0.00 0.00 0.00 0.00 0.00 0.00 0.00 0.00 0.00 0.00 0.00 0.00 0.00 0.00 0.00 0.00 0.00 0.00 0.00 0.00 0.00 0.00
0.00 0.00 0.00 0.00 0.00 0.00 0.00 0.00 0.00 0.00 0.00 0.00 0.00 0.00 0.00 0.00 0.00 0.00 0.00 0.00 0.00 0.00
0.00 0.00 0.00 0.00 0.00 0.00 0.00 0.00 0.00 0.00 0.00 0.00 0.00 0.00 0.00 0.00 0.00 0.00 0.00 0.00 0.00 0.00
0.00 0.00 0.00 0.00 0.00 0.00 0.00 0.00 0.00 0.00 0.00 0.00 0.00 0.00 0.00 0.00 0.00 0.00 0.00 0.00 0.00 0.00
0.00 0.00 0.00 0.00 0.00 0.00 0.00 0.00 0.00 0.00 0.00 0.00 0.00 0.00 0.00 0.00 0.00 0.00 0.00 0.00 0.00 0.00
0.00 0.00 0.00 0.00 0.00 0.00 0.00 0.00 0.00 0.00 0.00 0.00 0.00 0.00 0.00 0.00 0.00 0.00 0.00 0.00 0.00 0.00
0.00 0.00 0.00 0.00 0.00 0.00 0.00 0.00 0.00 0.00 0.00 0.00 0.00 0.00 0.00 0.00 0.00 0.00 0.00 0.00 0.00 0.00
0.00 0.00 0.00 0.00 0.00 0.00 0.00 0.00 0.00 0.00 0.00 0.00 0.00 0.00 0.00 0.00 0.00 0.00 0.00 0.00 0.00 0.00
0.00 0.00 0.00 0.00 0.00 0.00 0.00 0.00 0.00 0.00 0.00 0.00 0.00 0.00 0.00 0.00 0.00 0.00 0.00 0.00 0.00 0.00
MSLP
1014.77 1014.97 1015.03 1014.92 1014.71 1014.57 1014.20 1013.72 1013.12 1012.58 1012.02 1011.63 1011.38 1010.99 1010.77 1010.62 1010.36 1010.36 1010.19 1009.94 1010.08 1009.98
1014.38 1014.48 1014.46 1014.20 1014.07 1013.76 1013.22 1012.58 1012.14 1011.83 1011.25 1010.86 1010.51 1010.21 1009.95 1009.71 1009.42 1009.31 1009.16 1008.92 1008.66 1008.74
1013.86 1013.80 1013.86 1013.82 1013.51 1012.96 1012.50 1012.11 1011.59 1011.12 1010.73 1010.12 1009.81 1009.64 1009.49 1009.13 1008.71 1008.44 1007.85 1007.56 1007.53 1007.36
1013.99 1013.83 1013.66 1013.46 1012.91 1012.43 1011.94 1011.48 1011.02 1010.43 1009.93 1009.45 1008.85 1008.56 1008.43 1008.02 1007.60 1007.31 1006.72 1006.41 1006.24 1005.64
1013.84 1013.71 1013.32 1012.81 1012.40 1011.92 1011.48 1010.98 1010.18 1009.49 1008.86 1008.44 1008.13 1007.79 1007.67 1007.01 1006.60 1006.25 1005.66 1005.28 1004.97 1004.35
1013.61 1013.45 1013.08 1012.67 1012.26 1011.81 1011.09 1010.34 1009.66 1009.14 1008.61 1008.01 1007.54 1007.00 1006.46 1006.01 1005.61 1005.32 1004.89 1004.48 1003.94 1003.48
1013.64 1013.29 1012.87 1012.31 1011.80 1011.16 1010.73 1010.00 1009.34 1008.77 1008.12 1007.50 1006.76 1006.30 1005.97 1005.52 1004.93 1004.44 1003.87 1003.20 1002.56 1002.06
1013.18 1012.78 1012.37 1011.90 1011.31 1010.62 1010.03 1009.44 1008.79 1008.04 1007.61 1007.12 1006.72 1006.02 1005.37 1004.97 1004.42 1003.69 1002.68 1001.74 1000.90 1000.24
1012.88 1012.58 1012.01 1011.50 1011.02 1010.35 1009.80 1009.22 1008.56 1008.03 1007.76 1007.15 1006.32 1005.76 1005.20 1004.56 1003.75 1002.67 1001.35 1000.11 999.15 998.21
1012.52 1011.97 1011.63 1011.25 1010.84 1010.10 1009.41 1008.91 1008.79 1008.22 1007.61 1006.97 1006.21 1005.31 1004.58 1003.85 1002.96 1001.80 1000.46 999.46 998.08 996.53
1012.08 1011.69 1011.34 1010.82 1010.39 1010.09 1009.67 1009.17 1008.86 1008.41 1007.64 1006.81 1005.74 1004.94 1004.37 1003.43 1002.38 1001.36 1000.18 999.05 997.71 996.11
1011.84 1011.43 1011.03 1010.62 1010.27 1009.79 1009.84 1009.35 1008.91 1008.14 1007.46 1006.50 1005.70 1004.91 1004.11 1003.20 1002.25 1001.36 1000.29 999.25 997.96 996.26
1011.84 1011.34 1010.97 1010.61 1010.34 1009.98 1009.90 1009.67 1008.92 1008.08 1007.23 1006.69 1005.79 1004.98 1004.10 1003.25 1002.56 1001.73 1000.84 999.82 998.64 997.58
1011.40 1011.21 1010.86 1010.80 1010.30 1010.18 1009.71 1009.23 1008.46 1007.89 1007.47 1006.79 1006.06 1005.26 1004.50 1003.72 1003.11 1002.46 1001.71 1001.05 1000.38 999.71
Thickness
5596 5590 5587 5584 5580 5575 5570 5568 5567 5563 5559 5554 5545 5537 5529 5519 5511 5498 5489 5486 5482 5483
5585 5582 5578 5574 5569 5565 5563 5561 5557 5551 5546 5539 5530 5518 5505 5493 5485 5474 5468 5463 5462 5457
5577 5573 5567 5560 5556 5553 5550 5544 5539 5532 5524 5518 5505 5492 5477 5466 5460 5454 5451 5447 5443 5445
5560 5557 5552 5546 5543 5539 5535 5527 5521 5515 5506 5495 5485 5471 5456 5448 5442 5436 5437 5435 5432 5437
5546 5541 5537 5534 5529 5524 5518 5513 5507 5499 5490 5477 5463 5450 5438 5435 5431 5430 5431 5430 5429 5432
5531 5526 5521 5516 5510 5505 5502 5497 5488 5476 5465 5452 5442 5436 5430 5428 5427 5424 5422 5420 5420 5423
5514 5510 5505 5501 5497 5493 5484 5476 5466 5455 5442 5436 5432 5425 5423 5421 5420 5417 5414 5412 5413 5416
5501 5496 5492 5488 5485 5479 5469 5460 5450 5437 5429 5423 5416 5417 5417 5413 5411 5408 5408 5410 5412 5413
5487 5483 5480 5476 5470 5461 5451 5440 5430 5422 5414 5410 5412 5410 5407 5405 5403 5407 5413 5418 5421 5425
5477 5473 5466 5459 5450 5444 5436 5425 5416 5411 5404 5405 5404 5404 5401 5400 5402 5409 5414 5416 5423 5433
5466 5459 5451 5444 5437 5427 5416 5411 5405 5400 5401 5401 5401 5397 5392 5395 5402 5407 5410 5415 5423 5434
5450 5444 5437 5428 5421 5414 5404 5400 5396 5396 5397 5398 5395 5387 5387 5393 5400 5403 5408 5412 5419 5430
5432 5427 5419 5412 5405 5399 5394 5388 5389 5392 5394 5392 5387 5380 5383 5390 5394 5400 5402 5407 5412 5419
5419 5411 5404 5398 5395 5389 5385 5383 5384 5388 5389 5386 5380 5373 5377 5383 5388 5392 5396 5399 5402 5405